Погода в Бубе

Россия / Пермский край     58°17′35″N   54°23′01″E
темп.,
°C
ветер,
м/с
пор.,
м/с
влажн.,
%
обл.,
%
осадки,
мм/ч
давл.,
гПа
погр.,
м
6 марта, сб
сб623:00−13зюз489551 0.0 1004159
02:00−12з359689 0.1 100494
05:00−14з369593 0.1 1006138
08:00−18з369583 0.0 1007114
11:00−16зсз378952 0.0 1009355
14:00−12з458275 0.0 1009675
17:00−12з468587 0.1 1009766
20:00−16зюз3693100 0.1 101088
7 марта, вс
вс723:00−19зюз349780 0.1 101158
02:00−20зюз239873 0.0 101024
05:00−22юз239948 0.0 101120
08:00−22зюз229979 0.0 101120
11:00−17юз239282 0.1 1011247
14:00−13юз2382100 0.0 1010623
17:00−12юз2381100 0.1 1009696
20:00−17ю2294100 0.0 100820
8 марта, пн
пн823:00−19ю339885 0.1 100843
02:00−20ююв3410075 0.0 100748
05:00−20юв369977 0.0 1005129
08:00−18юв41096100 0.0 1003267
11:00−15юв5994100 0.6 1001457
14:00−11юв5890100 0.5 999675
17:00−9юв4792100 0.9 997571
20:00−9вюв2696100 0.4 997209
9 марта, вт
вт923:00−10ю3496100 0.8 99787
02:00−10ююв3696100 0.2 996142
05:00−11ю1196100 0.6 99621
08:00−13зсз119799 0.1 99721
11:00−10ссз229299 0.2 999248
14:00−8ссз3488100 0.1 1001499
17:00−9с3589100 0.2 1003557
20:00−13с369497 0.1 1005199
10 марта, ср
ср1023:00−16с349697 0.1 100769
02:00−19с359895 0.0 1008129
05:00−20с369897 0.1 1009238
08:00−21с3597100 0.1 1010247
11:00−21с4595100 0.2 1011319
14:00−19с3488100 0.0 1011404
17:00−17ссз3587100 0.1 1011498
20:00−22с239598 0.0 101223